Bradshaw AFB, HI

2:30 AM HST on November 19, 2019 (GMT -1000)
Bradshaw Army Air Field

Weather History for PHSF - September, 2019

Change the Weather History Date:

Sunday, September 8, 2019

  Actual Average Record
Temperature  
Mean Temperature 64 °F -  
Max Temperature 73 °F 70 °F 77 °F (2006)
Min Temperature 54 °F 50 °F 44 °F (1998)
Degree Days  
Heating Degree Days 2    
Growing Degree Days 14 (Base 50)    
Moisture  
Dew Point 51 °F    
Average Humidity 70    
Maximum Humidity 87    
Minimum Humidity 43    
Precipitation  
Precipitation 0.00 in - - ()
Sea Level Pressure  
Sea Level Pressure 30.00 in    
Wind  
Wind Speed 12 mph (SSE)    
Max Wind Speed 15 mph    
Max Gust Speed 25 mph    
Visibility 10 miles    
Events      
Averages and records for this station are not official NWS values.
T = Trace of Precipitation, MM = Missing Value Source: NWS Daily Summary

Daily Weather History Graph

Daily Weather History Graph

Search for Another Location

Airport or City:

Astronomy

Sep. 08, 2019 Rise Set
Actual Time 6:08 AM HST 6:31 PM HST
Civil Twilight 5:46 AM HST 6:53 PM HST
Nautical Twilight 5:20 AM HST 7:19 PM HST
Astronomical Twilight 4:54 AM HST 7:45 PM HST
Moon 3:11 PM HST (9/8) 1:34 AM HST (9/8)
Length of Visible Light 13h 07m
Length of Day
12h 22m
Waxing Gibbous, 77% of the Moon is Illuminated
Sep 8
Waxing Gibbous
Sep 13
Full
Sep 21
Last Quarter
Sep 28
New
Oct 5
First Quarter

Hourly Weather History & Observations

Time (HST) Temp. Dew Point Humidity Pressure Visibility Wind Dir Wind Speed Gust Speed Precip Events Conditions
12:56 AM 56.1 °F 50.4 °F 81% 29.97 in 10.0 mi South 13.8 mph 20.7 mph N/A   Clear
1:56 AM 55.2 °F 51.4 °F 87% 29.96 in 10.0 mi South 15.0 mph 20.7 mph N/A   Clear
2:56 AM 55.4 °F 51.3 °F 86% 29.95 in 10.0 mi SE 8.1 mph - N/A   Clear
3:56 AM 56.1 °F 48.2 °F 75% 29.98 in 10.0 mi SSE 5.8 mph - N/A   Clear
4:56 AM 54.9 °F 48.4 °F 79% 29.99 in 10.0 mi ESE 8.1 mph - N/A   Clear
5:56 AM 55.9 °F 50.4 °F 82% 30.00 in 10.0 mi SE 10.4 mph - N/A   Clear
6:56 AM 57.0 °F 50.2 °F 78% 30.02 in 10.0 mi SSE 10.4 mph - N/A   Clear
7:56 AM 62.2 °F 52.7 °F 71% 30.03 in 10.0 mi SSE 15.0 mph 20.7 mph N/A   Partly Cloudy
8:56 AM 64.9 °F 52.5 °F 64% 30.03 in 10.0 mi SSE 13.8 mph 23.0 mph N/A   Partly Cloudy
9:56 AM 68.4 °F 53.4 °F 59% 30.01 in 10.0 mi SSE 15.0 mph 21.9 mph N/A   Partly Cloudy
10:56 AM 71.1 °F 49.8 °F 47% 30.00 in 10.0 mi SSE 13.8 mph 24.2 mph N/A   Clear
11:56 AM 73.4 °F 49.8 °F 43% 29.98 in 10.0 mi SSE 11.5 mph 20.7 mph N/A   Partly Cloudy
12:56 PM 71.8 °F 50.4 °F 47% 29.99 in 10.0 mi South 13.8 mph 23.0 mph N/A   Clear
1:56 PM 71.1 °F 52.0 °F 51% 29.99 in 10.0 mi South 12.7 mph 17.3 mph N/A   Clear
2:56 PM 71.1 °F 51.4 °F 50% 29.97 in 10.0 mi SSW 11.5 mph 17.3 mph N/A   Clear
3:56 PM 68.4 °F 54.3 °F 61% 29.98 in 10.0 mi South 11.5 mph 18.4 mph N/A   Clear
4:56 PM 64.9 °F 54.5 °F 69% 30.00 in 10.0 mi SSW 11.5 mph - N/A   Clear
5:56 PM 62.2 °F 52.3 °F 70% 29.99 in 10.0 mi SSE 11.5 mph 21.9 mph N/A   Partly Cloudy
6:56 PM 58.1 °F 52.5 °F 82% 30.01 in 10.0 mi SSE 12.7 mph 24.2 mph N/A   Clear
7:56 PM 56.1 °F 51.4 °F 84% 30.05 in 10.0 mi SE 10.4 mph 25.3 mph N/A   Clear
8:56 PM 55.2 °F 49.1 °F 80% 30.06 in 10.0 mi SE 5.8 mph 18.4 mph N/A   Clear
9:56 PM 55.6 °F 48.4 °F 77% 30.04 in 10.0 mi SSE 12.7 mph 19.6 mph N/A   Clear
10:56 PM 55.8 °F 51.1 °F 84% 30.04 in 10.0 mi SE 8.1 mph 20.7 mph N/A   Clear
11:56 PM 57.7 °F 48.7 °F 72% 30.01 in 10.0 mi SE 9.2 mph 21.9 mph N/A   Clear